Flag Weather past 2 weeks in Dieppe, New Brunswick, Canada

Now
25 °F

Snow flurries. Overcast.


Feels Like: 13 °F
Forecast: 15 / 27 °F
Wind: 14 mph from Northwest

Location: Moncton

Current Time: Nov 27, 2014 at 9:49:58 PM

Latest Report: Nov 27, 2014 at 9:00 PM


Visibility: 15 mi

Pressure: 29.92 "Hg

Humidity: 86%

Dew point: 21 °F

Location of DieppeLocation

Historic Weather in Dieppe — Graph

°F

Dieppe temperature yesterday

Maximum temperature yesterday: 43 °F (at 12:00 AM)
Minimum temperature yesterday: 32 °F (at 7:00 PM)
Average temperature yesterday: 38 °F

Past Weeks' High & Low Weather Summary

 TemperatureHumidityPressure
High64 °F (Nov 25, 11:00 AM)100% (Nov 12, 11:00 PM)30.31 "Hg (Nov 12, 11:00 PM)
Low14 °F (Nov 22, 5:00 AM)39% (Nov 13, 3:00 PM)29.21 "Hg (Nov 18, 7:00 AM)
Average33 °F76%29.87 "Hg
* Reported Nov 12 8:00 PM — Nov 27 8:00 PM, Dieppe, Weather by CustomWeather, © 2014

Note: Actual official high and low records may vary slightly from our data, if they occured in-between our weather recording intervals... More about our weather records

Advertising

Dieppe weather history for previous 24 hours

 ConditionsComfort  
Time TempWeatherWind HumidityBarometerVisibility
8:00 PM
Nov 27
25 °FSnow flurries. Passing clouds.6 mph86%29.90 "Hg15 mi
7:00 PM27 °FPassing clouds.12 mph80%29.90 "Hg15 mi
6:00 PM27 °FSnow flurries. Low clouds.10 mph86%29.87 "Hg12 mi
5:00 PM27 °FOvercast.14 mph86%29.83 "Hg12 mi
4:00 PM28 °FPartly sunny.17 mph80%29.78 "Hg12 mi
3:00 PM28 °FOvercast.17 mph80%29.73 "Hg12 mi
2:00 PM30 °FLight snow. Mostly cloudy.21 mph86%29.65 "Hg2 mi
1:00 PM32 °FLight snow. Cloudy.23 mph80%29.58 "Hg3 mi
12:00 PM32 °FLight snow. Low clouds.26 mph87%29.54 "Hg1 mi
11:00 AM32 °FLight snow. Low clouds.29 mph87%29.51 "Hg1 mi
10:00 AM32 °FLight snow. Dense fog.23 mph93%29.49 "Hg1 mi
9:00 AM32 °FLight snow. Low clouds.25 mph93%29.47 "Hg1 mi
8:00 AM32 °FLight snow. Low clouds.28 mph93%29.49 "Hg1 mi
7:00 AM30 °FLight snow. Low clouds.31 mph93%29.54 "Hg1 mi
6:00 AM30 °FChilly.32 mph100%29.59 "Hg1 mi
5:00 AM32 °FLight snow. Low clouds.33 mph93%29.64 "Hg2 mi
4:00 AM32 °FSleet. Low clouds.24 mph93%29.72 "Hg1 mi
3:00 AM32 °FSleet. Low clouds.20 mph93%29.81 "Hg1 mi
2:00 AM32 °FLight snow. Low clouds.20 mph93%29.84 "Hg1 mi
1:00 AM32 °FSnow. Dense fog.20 mph93%29.90 "Hg1 mi
12:00 AM32 °FLight snow. Low clouds.21 mph93%29.93 "Hg1 mi
11:00 PM
Nov 26
32 °FChilly.10 mph93%30.02 "Hg1 mi
10:00 PM32 °FLight snow. Low clouds.10 mph93%30.05 "Hg1 mi
9:00 PM32 °FLight snow. Low clouds.8 mph93%30.09 "Hg3 mi
Weather by CustomWeather, © 2014

See weather overviewHow to use our weather pages